DW4782 Asprovalta GR current weather conditions

sailwx.info

Wind from 275 at 0 knots gusting 6

Air temperature 17.2° C
Dewpoint 11.0° C

Last reported at 2015-May-28 03:50 UTC.
Time now 2015-May-28 06:04 UTC

Location: N 40°43' E 023°43'.
View on Google Maps.

See reports from other nearby stations

  
Tides and Currents Weather Stations Pressure Air Temp Water Temp Dewpoint Dewpoint Depression Visibility Wind Speed Wind Dir Waves Ship Positions
date/time (UTC)wind fromknots sea level pressurealtimeterstation pressurevisibilityair tempwater tempwave heightnotes
2015-May-28 03:50 275 0 gusting 6 17.2
2015-May-28 03:40 265 1 gusting 3 17.2
2015-May-28 03:30 212 2 gusting 4 17.2
2015-May-28 03:20 239 2 gusting 4 17.2
2015-May-28 03:10 252 1 gusting 5 17.2
2015-May-28 03:00 262 1 gusting 7 16.7
2015-May-28 02:50 246 0 gusting 5 16.7
2015-May-28 02:40 321 1 gusting 0 16.7
2015-May-28 02:30 253 2 gusting 5 16.7
2015-May-28 02:20 260 2 gusting 3 16.7
2015-May-28 02:10 257 1 gusting 4 17.2
2015-May-28 02:00 276 2 gusting 5 16.7
2015-May-28 01:50 270 2 gusting 6 16.7
2015-May-28 01:40 261 2 gusting 5 16.1
2015-May-28 01:30 279 0 gusting 3 15.6
2015-May-28 01:20 224 15.6
2015-May-28 01:10 041 16.1
2015-May-28 01:00 041 16.1
2015-May-28 00:50 16.1
2015-May-28 00:40 041 16.1
2015-May-28 00:30 040 16.1
2015-May-28 00:20 16.1
2015-May-28 00:10 283 16.1
2015-May-28 00:00 236 16.1
2015-May-27 23:50 16.1
2015-May-27 23:40 16.1
2015-May-27 23:30 199 16.1
2015-May-27 23:20 16.1
2015-May-27 23:10 250 0 gusting 3 15.6
2015-May-27 23:00 237 0 gusting 2 15.6
2015-May-27 22:50 244 15.6
2015-May-27 22:40 274 15.6
2015-May-27 22:30 275 16.1
2015-May-27 22:20 338 15.6
2015-May-27 22:10 16.1
2015-May-27 22:00 16.1
2015-May-27 21:50 16.1
2015-May-27 21:40 014 16.1
2015-May-27 21:30 332 0 gusting 0 16.7
2015-May-27 21:20 257 2 gusting 4 16.7
2015-May-27 21:10 241 1 gusting 5 16.1
2015-May-27 21:00 198 0 gusting 4 16.7
2015-May-27 20:50 182 0 gusting 1 16.1
2015-May-27 20:40 222 0 gusting 0 16.7
2015-May-27 20:30 071 0 gusting 0 16.7
2015-May-27 20:20 278 4 gusting 6 16.7
2015-May-27 20:10 275 5 gusting 6 17.2
2015-May-27 20:00 283 6 gusting 9 17.2
2015-May-27 19:50 292 6 gusting 11 17.2
2015-May-27 19:40 279 6 gusting 13 17.2
2015-May-27 19:30 281 6 gusting 14 17.2
2015-May-27 19:20 261 5 gusting 7 17.2
2015-May-27 19:10 288 4 gusting 9 17.8
2015-May-27 19:00 266 3 gusting 6 17.8
2015-May-27 18:50 285 2 gusting 6 18.9
2015-May-27 18:40 025 1 gusting 6 18.9
2015-May-27 18:30 007 0 gusting 5 18.3
2015-May-27 18:20 276 18.3
2015-May-27 18:10 270 18.3
2015-May-27 18:00 270 18.3
2015-May-27 17:50 238 0 gusting 2 18.3
2015-May-27 17:40 264 18.3
2015-May-27 17:30 18.9
2015-May-27 17:20 267 18.9
2015-May-27 17:10 256 0 gusting 3 18.9
2015-May-27 17:00 247 18.9
2015-May-27 16:50 246 19.4
2015-May-27 16:40 246 19.4
2015-May-27 16:30 262 19.4
2015-May-27 16:20 19.4
2015-May-27 16:10 262 19.4
2015-May-27 16:00 262 20.0
2015-May-27 15:50 286 0 gusting 1 20.0
2015-May-27 15:40 247 20.6
2015-May-27 15:30 247 20.6
2015-May-27 15:20 246 0 gusting 0 20.6
2015-May-27 15:10 20.6
2015-May-27 15:00 20.6
2015-May-27 14:50 196 0 gusting 1 21.1
2015-May-27 14:40 197 0 gusting 2 21.1
2015-May-27 14:30 243 21.7
2015-May-27 14:20 243 20.6
2015-May-27 14:10 243 1 gusting 2 20.0
2015-May-27 14:00 238 0 gusting 1 20.0
2015-May-27 13:50 258 0 gusting 1 19.4
2015-May-27 13:40 230 0 gusting 3 20.0
2015-May-27 13:30 252 0 gusting 1 20.0
2015-May-27 13:20 266 20.0
2015-May-27 13:10 245 20.0
2015-May-27 13:00 244 20.0
2015-May-27 12:50 243 20.0
2015-May-27 12:40 248 0 gusting 1 20.0
2015-May-27 12:30 225 20.0
2015-May-27 12:20 301 19.4
2015-May-27 12:10 301 18.9
2015-May-27 12:00 326 0 gusting 1 19.4
2015-May-27 11:50 248 19.4
2015-May-27 11:40 355 0 gusting 2 20.0
2015-May-27 11:30 333 0 gusting 1 20.6
2015-May-27 11:20 059 0 gusting 2 22.2
2015-May-27 11:10 084 1 gusting 4 22.8
2015-May-27 11:00 110 2 gusting 6 23.9
2015-May-27 10:50 134 1 gusting 6 24.4
2015-May-27 10:40 119 1 gusting 4 23.3
2015-May-27 10:30 106 1 gusting 5 23.3
2015-May-27 10:20 120 1 gusting 3 23.3
2015-May-27 10:10 105 1 gusting 3 23.3
2015-May-27 10:00 104 0 gusting 2 23.3
2015-May-27 09:50 323 23.3
2015-May-27 09:40 293 0 gusting 2 23.3
2015-May-27 09:30 252 22.8
2015-May-27 09:20 252 22.2
2015-May-27 09:10 253 22.2
2015-May-27 09:00 270 21.7
2015-May-27 08:50 336 21.7
2015-May-27 08:40 21.1
2015-May-27 08:30 335 21.1
2015-May-27 08:20 336 21.1
2015-May-27 08:10 21.1
2015-May-27 08:00 336 20.6
2015-May-27 07:50 336 20.6
2015-May-27 07:40 336 20.6
2015-May-27 07:30 341 20.6
2015-May-27 07:20 013 20.6
2015-May-27 07:10 354 20.6
2015-May-27 07:00 340 21.1
2015-May-27 06:50 20.6
2015-May-27 06:40 20.6
2015-May-27 06:30 339 20.0
2015-May-27 06:20 292 20.0
2015-May-27 06:10 241 19.4
2015-May-27 06:00 241 19.4
2015-May-27 05:50 241 18.9
2015-May-27 05:40 240 18.9
2015-May-27 05:30 241 18.9
2015-May-27 05:20 18.3
2015-May-27 05:10 240 18.3
2015-May-27 05:00 18.3
2015-May-27 04:50 17.8
2015-May-27 04:40 240 17.8
2015-May-27 04:30 240 17.8
2015-May-27 04:20 249 0 gusting 3 17.8
2015-May-27 04:10 283 1 gusting 2 17.8
2015-May-27 04:00 279 0 gusting 2 17.8
2015-May-27 03:50 252 0 gusting 3 17.8
2015-May-27 03:40 283 0 gusting 1 17.8
2015-May-27 03:30 270 0 gusting 1 17.8
2015-May-27 03:20 272 0 gusting 2 17.8
2015-May-27 03:10 273 17.8
2015-May-27 03:00 251 1 gusting 3 17.2
2015-May-27 02:50 258 0 gusting 1 17.2
2015-May-27 02:40 248 1 gusting 2 17.2
2015-May-27 02:30 248 0 gusting 4 17.8
2015-May-27 02:20 266 0 gusting 1 17.8
2015-May-27 02:10 266 17.8
2015-May-27 02:00 18.3
2015-May-27 01:50 197 18.3
2015-May-27 01:40 18.3
2015-May-27 01:30 18.3
2015-May-27 01:20 18.3
2015-May-27 01:10 196 0 gusting 0 18.3
2015-May-27 01:00 292 18.9
2015-May-27 00:50 262 0 gusting 1 18.9
2015-May-27 00:40 259 0 gusting 0 19.4
2015-May-27 00:30 265 0 gusting 2 19.4
2015-May-27 00:20 262 19.4
2015-May-27 00:10 19.4
2015-May-27 00:00 261 19.4
2015-May-26 23:50 261 0 gusting 1 19.4
2015-May-26 23:40 283 0 gusting 1 19.4
2015-May-26 23:30 272 0 gusting 2 19.4
2015-May-26 23:20 264 0 gusting 2 20.0
2015-May-26 23:10 257 20.0
2015-May-26 23:00 249 20.0
2015-May-26 22:50 248 20.0
2015-May-26 22:40 248 20.0
2015-May-26 22:30 254 0 gusting 2 20.0
2015-May-26 22:20 260 0 gusting 0 20.0
2015-May-26 22:10 289 0 gusting 3 20.0
2015-May-26 22:00 255 20.0
2015-May-26 21:50 257 20.0
2015-May-26 21:40 267 0 gusting 1 20.0
2015-May-26 21:30 270 20.0
2015-May-26 21:20 286 20.6
2015-May-26 21:10 341 20.6
2015-May-26 21:00 341 20.6
2015-May-26 20:50 340 20.6
2015-May-26 20:40 348 20.6
2015-May-26 20:30 324 20.6
2015-May-26 20:20 338 20.0
2015-May-26 20:10 002 0 gusting 0 20.6
2015-May-26 20:00 265 1 gusting 2 20.6
2015-May-26 19:50 278 1 gusting 4 20.0
2015-May-26 19:40 278 20.0
2015-May-26 19:30 20.0
2015-May-26 19:20 278 20.6
2015-May-26 19:10 283 1 gusting 0 20.6
2015-May-26 19:00 243 2 gusting 5 20.6
2015-May-26 18:50 253 2 gusting 4 21.1
2015-May-26 18:40 259 2 gusting 5 21.1
2015-May-26 18:30 282 1 gusting 4 21.1
2015-May-26 18:20 278 1 gusting 3 21.7
2015-May-26 18:10 286 0 gusting 3 21.7
2015-May-26 18:00 284 0 gusting 2 21.7
2015-May-26 17:50 295 0 gusting 3 22.2
2015-May-26 17:40 274 22.2
2015-May-26 17:30 248 0 gusting 1 22.8
2015-May-26 17:20 241 1 gusting 2 23.9
2015-May-26 17:10 311 0 gusting 2 23.3
2015-May-26 17:00 342 0 gusting 2 23.9
2015-May-26 16:50 176 0 gusting 2 23.9
2015-May-26 16:40 117 1 gusting 6 23.9
2015-May-26 16:30 106 1 gusting 5 24.4
2015-May-26 16:20 136 1 gusting 4 24.4
2015-May-26 16:10 127 2 gusting 6 24.4
2015-May-26 16:00 110 1 gusting 5 25.0
2015-May-26 15:50 093 1 gusting 4 25.0
2015-May-26 15:40 090 2 gusting 6 25.6
2015-May-26 15:30 084 2 gusting 6 25.6
2015-May-26 15:20 089 2 gusting 6 25.6
2015-May-26 15:10 088 3 gusting 7 25.6
2015-May-26 15:00 115 4 gusting 6 25.6
2015-May-26 14:50 108 3 gusting 6 26.1
2015-May-26 14:40 106 3 gusting 8 26.1
2015-May-26 14:30 090 3 gusting 7 26.1
2015-May-26 14:20 101 4 gusting 8 26.1
2015-May-26 14:10 109 4 gusting 10 26.1
2015-May-26 14:00 124 3 gusting 8 26.1
2015-May-26 13:50 112 3 gusting 8 26.7
2015-May-26 13:40 145 2 gusting 6 26.7
2015-May-26 13:30 105 2 gusting 6 26.7
2015-May-26 13:20 131 4 gusting 7 26.7
2015-May-26 13:10 122 3 gusting 7 26.7
2015-May-26 13:00 120 3 gusting 7 26.1
2015-May-26 12:50 109 2 gusting 6 25.6
2015-May-26 12:40 127 2 gusting 6 25.6
2015-May-26 12:30 109 2 gusting 6 26.1
2015-May-26 12:20 128 2 gusting 6 26.1
2015-May-26 12:10 149 3 gusting 6 26.1
2015-May-26 12:00 154 3 gusting 6 26.1
2015-May-26 11:50 124 3 gusting 6 26.7
2015-May-26 11:40 129 2 gusting 4 26.7
2015-May-26 11:30 098 2 gusting 6 27.2
2015-May-26 11:20 135 2 gusting 6 26.7
2015-May-26 11:10 129 3 gusting 6 26.1
2015-May-26 11:00 122 3 gusting 9 26.7
2015-May-26 10:50 147 4 gusting 6 26.7
2015-May-26 10:40 123 5 gusting 9 26.7
2015-May-26 10:30 127 4 gusting 11 26.7
2015-May-26 10:20 171 2 gusting 6 27.8
2015-May-26 10:10 189 1 gusting 5 27.2
2015-May-26 10:00 166 2 gusting 1 27.2
2015-May-26 09:50 181 0 gusting 4 27.2
2015-May-26 09:40 337 3 gusting 5 27.2
2015-May-26 09:30 225 1 gusting 6 27.2
2015-May-26 09:20 356 0 gusting 3 26.7
2015-May-26 09:10 206 1 gusting 1 26.7
2015-May-26 09:00 113 2 gusting 4 26.1
2015-May-26 08:50 070 2 gusting 4 26.1
2015-May-26 08:40 081 2 gusting 6 25.6
2015-May-26 08:30 121 0 gusting 4 25.0
2015-May-26 08:20 111 1 gusting 2 25.6
2015-May-26 08:10 139 1 gusting 6 25.6
2015-May-26 08:00 123 0 gusting 2 25.0
2015-May-26 07:50 136 1 gusting 4 24.4
2015-May-26 07:40 206 0 gusting 2 24.4
2015-May-26 07:30 162 0 gusting 3 24.4
2015-May-26 07:20 110 0 gusting 2 24.4
2015-May-26 07:10 085 0 gusting 4 23.9
2015-May-26 07:00 087 0 gusting 2 23.3
2015-May-26 06:50 082 1 gusting 2 23.3
2015-May-26 06:40 080 1 gusting 3 23.3
2015-May-26 06:30 045 1 gusting 4 22.8
2015-May-26 06:20 113 0 gusting 1 22.2
2015-May-26 06:10 178 0 gusting 1 22.2
2015-May-26 06:00 077 0 gusting 4 22.2